Aérodrome :
LOGIN :

S'inscrire | Disclaimer

   EN    FR    IT 

 










Légende :    VFR   VFR Marginal   IFR   IFR Intensif   IFR Très Intensif
Visi : 
Plafond : 
>= 8 km
>= 3000ft
5 à 8 km
1000 à 3000 ft
1500m à 5 km
500 à 1000 ft
800 à 1500m
200 à 500 ft
< 800m
< 200 ft
Symboles :   Orages  Brouillard  Fortes neiges  Fortes précipitations  Vent > 20 kt
SIGMETs :   Divers  Orages  Givrage  Turbulence  Onde Orograph.  Cendres Volcan.






- Altitude de l'aérodrome : 989 ft
- Code IATA : TRN


LIMF - Torino Caselle

DERNIER METAR :
  • 031820Z 05005KT CAVOK 13/01 Q1014

METARs EXPIRÉS :
  • 031750Z 05004KT CAVOK 14/01 Q1014
  • 031720Z 06004KT CAVOK 15/02 Q1013
  • 031650Z 07005KT CAVOK 15/02 Q1013
  • 031620Z 07005KT CAVOK 16/M00 Q1013
  • 031550Z 07003KT 030V110 CAVOK 16/M01 Q1013

TAF TAF LIMF
Valide du 03 à 18h jusqu'au 04 à 18h UTC


031700Z 0318/0418 VRB05KT 8000 NSC
TEMPO 0322/0406 4000 BR



MET'MAP, la Météo Aéronautique d'un coup d'oeil ! - Copyright ORBIFLY Décembre 2007 - Disclaimer

ORBIFLY MET'MAP TEAM :

Programmation & Développement : Alexandra Zaïnal
Sur une idée originale de : Baudouin d'Aumeries
Assistance à la programmation : Marc-Olivier Méhu
Soutien technique & logistique : Manuel Goepfert

Contact : metmap@orbifly.com




SOURCES & CREDITS :

   NOAA